GFSGL_250_spd_027.txt.gz
Wind_Speed
128 124 126 133 130 132 129 129 129 127 122 122 125 122 123 124 125 125 122 120 117 117 117 115 114 112 110 108 105 102 98 98 92 92 92 95 98 96 95 96 93 92 90
122 125 134 137 141 137 137 138 137 136 136 132 129 128 131 131 132 134 131 129 128 127 125 124 123 122 120 118 116 113 110 106 105 102 104 103 103 102 101 102 99 96 95
117 118 122 128 132 139 142 146 145 147 148 145 142 141 143 137 139 140 140 140 139 136 135 135 134 130 127 128 126 124 121 117 114 109 109 110 109 110 108 108 103 103 103
115 117 117 119 122 128 130 137 144 150 154 151 147 146 145 145 145 149 146 146 149 146 146 145 144 142 140 138 135 134 132 128 124 120 118 114 112 114 116 115 114 112 110
111 113 116 118 120 121 123 127 129 133 139 143 144 145 151 151 153 155 150 154 155 150 153 151 150 153 150 147 145 144 139 137 135 135 127 125 121 118 119 121 120 120 117
104 106 109 113 116 118 119 121 123 126 129 131 133 135 135 138 139 142 147 145 144 144 157 158 159 157 156 156 152 148 147 145 145 138 136 130 128 128 126 127 128 125 122
100 102 104 105 106 109 111 114 116 118 119 123 126 129 129 132 137 138 140 140 139 140 137 138 146 152 162 158 155 155 149 147 147 143 141 137 138 137 134 130 133 135 131
97 98 100 102 103 105 106 108 109 112 115 117 117 118 119 120 125 130 133 134 131 131 133 133 133 130 133 141 149 150 151 152 147 151 154 147 153 146 146 140 139 141 141
90 92 94 94 95 96 98 100 102 103 104 107 109 112 115 114 120 123 124 123 122 121 123 127 130 128 127 130 127 124 126 124 130 131 133 139 140 135 147 149 143 143 142
90 92 92 93 92 93 94 95 96 96 97 99 99 103 105 105 111 116 121 121 117 116 116 115 116 117 120 124 126 122 118 112 120 121 117 117 123 129 136 142 149 148 142
88 90 90 90 92 93 93 94 94 94 94 96 96 98 99 100 101 106 111 112 113 113 112 112 112 114 113 115 120 118 109 110 113 113 114 113 116 118 121 124 126 130 132
85 85 84 86 87 88 89 91 92 92 93 94 93 95 98 99 101 103 106 106 105 102 104 106 108 111 112 110 110 108 104 106 107 105 107 107 111 112 113 119 119 116 119
83 82 83 82 84 83 82 84 86 88 88 89 89 90 93 96 99 101 102 104 103 100 98 98 101 104 106 108 107 105 104 104 104 101 98 101 106 110 114 109 112 111 110
82 84 84 83 82 82 81 81 82 84 83 83 83 84 87 92 94 96 96 97 99 99 98 97 96 98 102 103 103 101 98 98 101 102 99 100 103 103 105 107 109 109 107
81 81 82 81 81 81 82 81 81 80 80 78 77 78 82 85 86 87 89 92 93 95 94 94 96 93 95 99 101 100 98 94 92 95 96 100 103 103 102 101 104 104 106
76 76 77 75 75 75 75 77 77 76 76 73 73 74 76 76 76 77 78 80 82 82 83 86 87 89 90 95 98 98 98 94 90 91 92 94 96 98 101 100 101 101 101
74 75 75 73 73 72 72 72 74 74 70 69 68 69 71 72 71 70 72 73 72 72 74 77 79 81 83 86 89 91 92 90 88 87 90 89 87 91 95 95 99 101 101
69 69 69 69 68 67 66 66 66 66 67 67 61 62 64 65 66 65 66 68 66 65 67 69 72 75 77 79 81 83 85 83 81 82 84 85 85 86 89 91 93 97 101
66 67 65 64 63 62 62 61 61 61 61 61 62 60 57 55 58 58 58 59 59 59 60 62 66 68 71 72 74 77 79 79 80 79 77 78 80 85 88 88 87 89 93
65 64 64 63 62 61 60 58 58 57 56 58 59 60 61 55 53 53 55 56 55 55 55 56 59 62 64 65 67 68 70 72 75 76 74 73 75 79 86 88 88 87 88
63 61 60 60 59 59 58 56 55 55 54 54 55 57 58 59 54 52 52 52 53 53 53 53 54 56 57 58 59 61 63 64 67 69 70 71 72 75 80 84 87 87 86
62 60 58 57 56 55 55 54 53 51 51 52 51 52 53 53 54 52 49 49 50 50 49 49 49 51 52 54 55 57 59 60 61 63 65 67 69 71 76 80 83 86 87
58 57 56 56 56 54 53 52 52 50 49 49 49 48 49 51 50 51 50 47 46 46 46 45 46 46 47 49 50 52 53 56 58 58 60 62 65 69 72 76 80 82 83
56 54 53 53 53 52 51 50 49 49 48 48 47 45 45 45 46 47 48 47 44 43 43 43 43 44 44 45 47 48 49 51 53 55 56 58 62 65 68 71 74 78 80
52 51 50 49 48 47 46 47 47 47 46 45 44 43 42 40 40 43 44 44 43 40 41 42 41 41 42 42 43 45 46 49 50 52 53 55 57 60 63 66 69 71 75
49 48 47 46 45 44 45 45 45 44 43 42 41 40 40 40 39 38 40 41 40 40 37 38 39 39 40 41 42 43 44 46 48 49 52 53 55 57 59 61 63 66 68

GFSGL_250_spd_030.txt.gz
Wind_Speed
125 125 131 136 134 138 142 139 137 136 139 136 135 139 136 131 130 128 127 126 125 124 122 119 119 119 118 117 116 112 107 109 102 100 100 101 99 99 97 95 93 91 90
119 118 118 118 121 122 121 128 127 129 137 140 144 139 145 143 140 138 136 136 132 131 129 129 129 127 125 125 126 124 121 118 113 108 110 109 109 107 105 104 101 98 96
115 115 116 117 119 119 119 121 121 123 125 129 134 140 141 144 151 148 149 148 145 144 140 139 135 136 135 134 133 131 131 129 124 119 116 116 116 115 114 111 110 107 104
112 111 111 111 113 115 117 118 119 121 121 123 125 126 131 137 141 149 154 156 154 151 150 148 146 146 145 144 143 141 141 139 137 133 128 124 124 122 122 119 119 117 116
101 101 102 104 105 107 110 112 114 117 118 120 121 124 125 128 132 136 143 150 157 156 155 155 157 155 153 151 153 151 149 145 144 140 137 135 130 130 129 129 127 127 125
95 95 96 96 98 100 101 103 105 106 108 110 115 119 122 124 128 130 133 135 137 139 142 145 156 162 162 159 156 152 154 159 155 152 150 147 144 139 138 138 137 133 131
97 97 98 98 97 97 97 98 101 102 104 107 108 110 110 114 121 125 126 126 128 130 133 135 137 137 140 152 163 163 160 163 157 159 158 153 156 153 152 148 144 140 136
92 93 93 93 93 93 93 93 94 95 97 99 101 104 105 108 112 116 118 118 118 119 124 129 132 133 134 137 139 142 145 146 149 158 161 159 163 157 157 158 158 154 150
90 91 90 90 90 90 92 93 93 94 95 96 96 96 97 99 103 106 108 108 110 112 114 115 118 121 125 132 135 136 137 134 134 136 138 137 147 153 150 151 157 158 156
91 92 91 90 89 89 89 91 92 92 93 93 94 96 97 97 99 100 102 102 101 101 102 104 106 110 114 120 124 124 124 119 128 129 128 128 130 135 139 139 139 141 150
88 88 89 90 90 90 89 91 89 89 88 89 91 92 93 94 96 98 99 98 97 96 95 99 100 102 102 106 114 116 116 119 121 122 121 120 120 122 126 130 131 132 131
86 85 85 84 83 84 87 86 85 83 82 85 85 88 90 90 91 93 94 95 95 95 97 98 98 99 100 100 101 103 106 110 113 115 115 114 113 112 112 117 121 123 124
85 85 85 84 82 83 82 82 81 79 80 82 82 84 87 87 88 87 87 87 87 89 92 93 95 97 98 99 99 99 98 97 101 102 104 104 108 111 114 113 112 112 114
85 85 83 81 81 81 79 77 76 76 77 77 78 79 82 83 82 81 83 84 85 86 87 88 90 90 92 93 95 96 98 96 95 94 94 95 98 104 108 110 109 108 106
80 79 78 77 77 76 75 75 72 72 70 73 74 73 74 75 73 74 76 76 77 78 79 82 86 88 90 90 90 91 92 92 94 94 91 91 92 95 101 105 107 107 103
78 76 74 74 74 72 72 73 72 68 69 70 71 71 71 70 70 70 70 71 71 71 73 74 76 78 79 80 81 83 86 87 90 90 90 89 90 91 94 98 99 99 97
74 72 72 73 70 70 69 67 71 72 64 64 67 66 66 66 66 66 66 65 64 65 65 66 67 69 71 72 73 77 79 81 83 82 83 86 85 81 84 91 94 93 91
72 69 71 71 68 67 66 65 64 65 68 63 55 58 60 60 61 62 61 60 60 59 60 59 60 62 63 65 66 69 72 74 77 78 77 76 73 74 79 87 90 91 91
72 68 70 68 67 65 64 62 61 60 58 60 59 55 57 56 55 56 56 56 56 56 56 56 55 56 57 59 61 63 65 68 70 71 73 73 72 70 74 82 88 90 91
72 67 69 67 66 65 63 61 58 57 56 56 56 57 56 54 53 52 52 53 53 54 56 55 53 52 54 55 56 58 60 62 64 66 67 68 69 69 71 75 80 83 86
68 62 65 63 63 62 60 58 57 55 54 52 53 52 53 54 53 52 50 49 50 49 48 52 51 51 50 51 53 54 55 56 58 60 62 64 65 66 67 70 74 78 79
60 59 59 58 58 57 56 56 55 54 52 52 51 50 50 50 51 51 51 50 48 48 47 45 47 47 47 47 49 51 52 53 54 55 57 59 62 63 63 65 68 72 74
54 54 54 54 54 54 54 54 53 52 50 50 49 48 47 48 47 47 48 50 50 46 47 45 43 44 44 44 45 48 48 50 50 51 53 56 58 59 60 61 64 67 71
53 53 52 52 51 50 51 50 49 49 48 46 45 45 46 45 45 45 44 46 48 47 43 43 42 41 42 42 42 44 46 47 47 48 49 52 54 55 57 59 61 63 66
52 52 51 50 48 48 48 47 47 46 45 43 42 43 43 42 42 43 42 41 42 43 42 38 39 39 38 39 40 41 43 44 45 45 46 47 49 52 54 57 59 61 63
49 48 47 46 46 45 44 44 44 43 42 40 40 40 41 41 41 40 39 38 38 39 40 35 35 36 36 36 37 38 40 42 43 43 44 45 47 49 52 54 56 58 59

GFSGL_250_spd_033.txt.gz
Wind_Speed
119 118 117 119 124 122 123 125 129 134 136 135 138 147 149 147 152 147 144 143 139 135 134 132 131 129 126 127 123 120 117 115 105 106 109 109 106 105 102 99 97 94 91
124 122 121 120 120 121 122 123 124 125 124 124 126 128 131 134 138 145 152 153 149 146 144 142 141 142 137 135 136 130 128 126 121 114 114 114 116 115 113 109 107 103 100
120 117 116 116 116 115 113 113 114 114 116 117 118 119 120 122 124 126 132 140 155 156 151 151 153 148 146 147 144 143 140 135 130 126 123 123 120 122 122 120 118 114 113
110 104 101 101 100 100 100 101 102 103 104 106 108 110 113 115 117 119 122 123 125 131 138 141 149 148 152 152 152 152 149 148 146 137 133 130 130 130 129 128 126 126 123
100 97 95 94 93 93 93 94 95 96 98 99 101 103 105 108 110 113 115 117 119 122 125 126 130 138 142 154 158 159 158 157 151 151 146 143 137 137 137 137 134 135 133
96 93 91 90 90 90 91 92 93 94 96 97 99 100 101 103 105 106 107 109 111 114 118 123 125 128 132 136 146 153 157 163 161 160 155 150 149 146 146 146 145 143 139
99 96 95 95 95 95 95 94 94 93 94 95 96 98 100 101 103 103 103 103 103 107 110 113 118 122 125 129 133 137 138 146 154 163 165 161 159 156 156 155 154 151 146
98 97 96 94 93 93 93 94 93 92 92 92 93 95 94 95 97 97 98 98 99 101 104 107 109 114 118 120 123 127 130 133 135 141 142 152 166 165 164 163 160 158 156
98 96 95 93 92 91 90 89 89 89 90 91 93 93 91 92 92 94 94 95 97 99 99 99 100 104 111 116 118 117 118 120 129 132 133 131 138 149 163 169 166 165 162
97 96 94 92 90 89 88 87 86 85 85 88 88 88 88 89 90 89 90 89 90 92 95 99 100 102 104 106 109 111 111 116 120 120 119 121 126 131 135 141 144 150 160
97 94 91 89 88 88 87 86 85 84 84 86 83 85 86 85 84 83 84 85 85 87 88 91 94 98 102 106 108 107 104 107 109 110 113 113 113 117 121 129 132 134 134
95 91 88 86 85 84 84 82 81 80 81 79 79 81 84 83 82 82 82 83 84 83 83 84 86 88 92 97 102 106 106 103 101 101 102 104 106 109 113 118 120 123 123
90 87 85 84 83 83 82 81 78 77 73 71 72 74 76 76 75 77 78 80 81 82 84 85 87 87 86 87 91 94 97 100 101 99 98 97 100 102 105 106 111 115 117
86 84 82 82 82 80 77 74 73 71 72 71 70 72 73 73 72 73 73 73 73 75 77 81 84 85 86 86 86 86 87 89 92 95 97 99 100 101 101 102 103 107 109
83 81 80 79 77 76 76 75 72 69 69 69 70 70 70 70 69 69 69 69 69 71 72 74 76 77 80 82 84 84 83 83 83 85 88 91 95 99 99 102 102 104 101
80 79 78 77 76 75 74 76 74 69 70 68 67 68 69 67 67 67 66 66 66 68 69 70 70 71 73 75 77 79 78 78 78 78 82 85 90 92 94 94 98 101 99
78 77 77 76 75 75 74 73 74 74 66 67 66 65 65 66 65 63 64 65 63 64 65 65 66 67 67 69 68 69 70 72 73 76 75 76 80 83 88 91 92 94 95
74 75 75 74 75 76 73 71 71 73 72 65 60 63 62 61 59 59 61 62 61 60 61 61 60 62 62 64 63 62 63 65 67 68 71 72 74 76 78 83 89 92 92
75 74 74 75 76 76 75 75 72 69 68 67 64 57 57 55 54 55 56 58 59 58 57 55 57 59 58 59 60 59 59 60 61 63 65 68 69 70 73 76 79 83 86
76 75 75 75 76 76 74 74 70 66 63 61 61 60 55 53 52 51 52 53 55 56 56 54 52 53 54 55 56 57 57 58 58 59 61 63 64 67 68 71 73 76 79
76 75 73 72 71 70 69 67 63 60 58 57 57 57 55 54 53 53 51 51 52 53 52 51 51 51 53 52 53 53 55 55 57 58 58 59 60 62 64 66 66 68 72
73 70 68 66 64 62 62 61 58 55 55 55 55 54 54 52 52 51 51 51 50 50 52 51 48 45 47 49 49 51 52 53 54 56 56 57 57 59 60 62 62 64 66
70 67 65 62 59 56 57 55 54 53 53 54 53 52 51 50 50 49 50 49 47 48 49 50 50 46 43 46 46 47 48 50 51 53 54 54 55 56 58 59 60 61 61
64 62 59 57 54 53 52 52 52 52 51 51 51 49 48 48 48 50 49 47 46 46 46 46 46 46 43 44 44 44 45 46 47 49 51 52 53 54 55 56 57 58 58
58 57 55 53 51 50 49 49 50 49 48 47 47 46 45 45 46 48 47 46 46 45 44 42 42 41 41 41 42 41 42 43 43 45 47 49 50 51 52 53 55 55 56
56 54 52 50 48 48 48 48 47 46 45 44 43 43 43 44 45 45 44 44 45 45 43 41 39 38 39 38 40 40 40 40 41 43 44 46 48 49 49 51 52 53 54

GFSGL_250_spd_036.txt.gz
Wind_Speed
127 131 122 116 111 110 113 115 115 120 121 125 123 125 131 136 138 136 144 147 145 147 147 151 149 149 149 150 145 141 136 128 117 112 115 118 115 113 111 106 101 101 100
135 129 120 118 120 118 114 113 112 113 112 111 111 112 114 117 121 124 126 132 136 144 146 147 150 154 154 154 155 156 149 142 135 123 119 122 122 120 118 117 113 109 106
138 129 124 122 115 111 107 105 103 102 101 100 102 104 105 108 109 111 113 116 120 124 126 129 134 137 138 143 147 149 158 153 145 138 131 128 128 127 125 124 123 121 117
128 125 118 111 105 99 98 97 96 96 95 95 96 98 99 101 103 103 104 105 107 110 114 117 120 124 126 127 127 130 136 151 154 151 148 140 139 137 136 135 134 132 129
124 116 108 102 98 97 96 95 93 92 92 91 93 95 97 100 101 101 100 101 102 103 105 108 110 113 115 118 121 123 125 128 129 135 135 148 144 144 144 144 143 142 139
117 112 105 101 98 97 96 95 94 93 92 91 92 93 94 95 96 97 97 97 99 99 100 103 104 105 107 108 112 116 120 122 125 129 126 137 148 153 150 152 151 150 148
114 109 106 102 101 100 99 97 95 94 93 93 92 92 93 94 93 94 94 92 93 94 95 96 98 100 102 104 106 109 111 115 120 123 123 125 131 139 153 155 155 160 156
112 109 107 104 102 100 98 96 93 91 91 91 91 90 90 91 91 90 89 89 91 92 93 94 95 96 97 98 100 104 108 109 112 114 117 121 126 130 134 140 145 153 158
112 109 106 102 99 97 95 94 92 90 89 88 88 88 87 89 88 86 85 85 86 87 89 90 91 94 96 98 99 99 101 103 105 108 108 109 117 124 130 134 133 136 136
109 106 102 99 97 96 94 92 90 89 88 87 86 86 86 86 84 84 83 83 84 85 86 87 86 89 92 96 97 98 100 102 101 100 101 105 109 112 117 123 129 131 129
106 104 101 99 96 94 92 90 88 86 85 85 84 85 86 85 84 83 83 82 82 84 85 85 85 85 86 90 93 96 97 99 100 100 101 100 101 105 109 113 116 118 121
104 101 98 96 93 91 89 87 86 84 83 83 81 82 83 82 80 78 76 74 74 76 77 78 80 82 83 83 86 89 93 95 98 100 100 101 101 101 102 104 106 108 112
100 97 95 92 89 87 85 84 83 82 81 80 78 77 77 77 75 74 73 71 69 70 71 72 74 76 77 80 82 84 86 88 93 96 99 100 99 99 98 100 103 103 102
95 91 90 87 84 83 82 82 81 81 80 76 72 72 72 72 69 69 69 68 66 64 66 68 70 72 75 76 77 79 81 83 85 88 91 94 97 98 97 98 97 99 100
92 90 87 84 83 83 81 81 80 78 74 71 69 68 66 67 68 67 67 65 65 64 63 64 66 69 71 73 74 76 77 78 79 79 83 87 90 93 96 96 94 93 93
89 86 84 83 82 81 79 79 77 75 74 69 65 65 64 65 65 67 67 65 64 63 64 64 65 66 67 69 70 73 74 75 76 75 75 76 79 84 89 92 91 91 92
85 84 82 82 82 79 75 73 76 77 72 68 63 63 63 63 65 66 67 65 64 64 64 65 65 65 65 65 66 67 69 69 70 72 73 73 73 75 79 82 85 87 91
82 82 80 79 78 76 73 71 71 74 77 69 62 63 66 64 63 64 65 63 61 61 63 64 63 63 62 62 61 62 63 64 64 65 66 68 68 71 72 76 76 77 84
81 79 78 76 76 75 73 73 72 74 76 77 74 66 68 66 62 61 61 60 58 58 60 61 61 61 60 59 59 59 60 60 59 60 61 63 64 66 68 69 70 70 75
78 77 76 75 75 74 74 73 73 75 74 73 73 70 65 64 61 58 57 55 55 56 58 61 59 56 55 55 55 55 56 57 56 57 57 59 61 62 64 65 65 66 69
75 74 74 74 73 73 72 71 72 72 68 68 68 65 62 60 59 56 52 51 52 54 57 58 56 54 53 52 53 53 54 55 56 55 55 57 59 60 61 62 62 63 64
74 74 72 72 72 71 69 69 69 66 65 64 62 60 59 58 57 56 53 52 51 53 55 53 50 50 49 49 50 51 50 50 52 53 53 54 56 58 58 59 59 60 62
72 71 71 70 69 67 65 64 63 61 60 58 58 57 56 56 55 54 53 52 51 52 52 49 48 47 46 47 48 47 46 46 49 49 50 53 54 55 56 57 57 57 58
71 70 68 67 64 62 62 61 59 56 55 55 55 55 55 53 52 51 51 50 49 50 50 47 44 45 44 43 45 45 45 44 45 46 46 48 50 52 53 53 54 55 55
68 66 65 63 61 59 59 57 56 54 53 53 53 54 53 51 49 49 47 46 47 46 44 45 44 42 43 43 42 42 42 43 44 44 42 43 45 47 49 50 50 52 53
64 62 60 58 57 56 56 54 53 52 51 51 51 51 50 49 48 46 44 44 44 42 43 42 42 41 41 41 39 40 40 41 41 42 42 41 42 43 45 46 46 47 48

GFSGL_250_spd_042.txt.gz
Wind_Speed
102 100 103 96 99 99 104 111 119 124 122 128 127 118 115 112 110 108 107 108 108 107 107 108 110 112 115 116 117 121 122 123 119 130 140 143 145 143 147 148 144 136 132
98 99 103 106 105 110 118 123 127 131 132 129 121 114 110 109 107 104 103 102 102 102 104 105 106 107 108 108 110 111 112 114 111 109 121 126 133 140 141 144 146 147 142
104 110 109 111 120 124 126 131 137 136 127 121 114 112 109 106 103 101 100 101 102 102 104 105 106 107 107 107 107 106 107 107 106 102 105 111 115 124 131 134 140 142 143
106 114 115 119 128 129 135 139 136 128 119 113 112 109 106 102 101 99 99 100 101 102 103 103 104 104 104 104 103 103 102 101 100 99 97 102 106 111 116 124 130 137 143
121 123 129 134 138 137 142 137 133 119 112 111 109 106 103 101 99 98 97 96 96 96 97 98 99 98 97 98 98 99 98 97 97 95 93 95 101 104 106 109 116 125 128
128 135 136 138 142 145 140 131 124 116 111 107 106 104 102 99 97 94 92 91 90 88 90 92 93 93 93 94 94 94 95 94 93 92 92 90 93 96 101 104 106 113 117
138 141 145 146 149 144 132 127 120 115 109 107 106 103 99 95 93 91 88 85 83 84 83 84 86 86 86 88 90 91 90 90 90 90 90 89 89 91 93 98 103 104 109
145 148 150 151 148 138 131 126 119 113 110 107 105 101 98 94 90 87 83 81 79 79 79 80 80 79 81 83 84 87 88 88 88 89 87 89 88 89 89 92 97 98 104
151 152 157 151 145 137 129 123 115 113 111 107 103 99 93 91 86 84 81 79 79 79 79 78 77 76 79 80 80 83 84 84 85 87 86 88 89 90 90 88 90 93 98
157 159 155 153 137 128 125 120 117 112 108 102 99 95 91 88 85 83 81 80 78 76 76 76 76 74 76 77 78 79 80 81 82 83 83 84 86 87 88 87 88 90 94
162 158 150 138 130 128 122 118 115 108 103 99 96 93 90 87 85 83 80 76 76 75 75 76 76 76 75 76 76 76 77 79 79 80 81 82 83 84 86 85 86 87 90
152 142 137 131 127 122 118 114 108 103 99 96 93 90 88 86 84 79 76 74 73 72 73 74 74 73 71 71 71 70 70 71 73 75 74 75 75 77 79 82 84 84 87
142 134 130 125 121 118 113 107 103 99 96 93 91 88 86 83 80 78 75 75 74 71 70 69 68 68 69 71 71 72 71 71 71 74 76 75 74 74 75 74 76 79 83
133 131 125 121 116 111 106 104 100 98 95 91 89 86 83 82 80 79 77 76 72 70 67 66 65 66 67 70 71 72 72 72 71 73 74 75 74 74 74 72 73 73 75
128 126 120 114 110 105 100 99 98 96 92 89 86 82 81 81 79 78 75 73 71 70 68 67 65 64 65 68 69 71 71 72 73 72 72 71 72 73 73 72 71 71 72
124 118 113 108 103 99 97 96 94 92 89 85 82 80 80 78 76 74 72 71 72 69 67 65 63 63 64 65 66 67 67 70 72 73 71 70 69 69 71 71 70 69 71
115 112 110 105 100 97 94 92 91 89 85 83 81 79 77 75 74 72 71 70 71 68 66 63 63 63 62 61 62 63 64 64 66 68 68 66 66 67 67 67 67 66 68
114 110 104 99 95 92 90 88 88 87 85 82 79 76 75 75 74 71 68 69 70 68 68 65 63 61 61 60 59 59 59 58 58 58 58 59 60 64 65 65 64 64 64
106 101 96 92 89 87 86 84 85 86 85 81 77 73 73 73 73 71 69 69 68 65 64 63 61 59 58 58 57 56 55 54 53 53 52 54 55 57 59 60 60 60 61
97 92 89 87 84 84 81 82 83 82 80 78 76 73 71 71 71 69 68 68 66 62 60 59 58 57 55 55 53 52 51 51 50 50 50 50 51 52 54 56 56 56 56
90 87 84 81 79 78 80 81 80 78 78 77 76 73 69 70 70 67 65 64 63 60 57 55 55 54 53 52 51 50 49 48 49 49 49 48 48 48 48 50 50 50 52
84 82 80 78 76 78 79 79 79 77 76 76 75 72 68 68 68 66 62 59 59 57 55 52 51 52 51 49 48 47 46 46 46 46 46 48 47 46 46 47 47 47 47
81 80 76 75 77 77 77 77 76 75 74 74 73 70 67 66 64 62 60 56 54 54 53 51 49 49 48 47 47 46 45 45 45 45 44 45 46 46 45 46 46 44 45
80 76 75 77 77 75 74 75 73 73 72 70 68 66 64 61 60 58 55 54 53 51 50 49 47 46 45 44 44 45 44 43 42 42 41 40 42 43 42 42 42 42 42
77 76 77 77 75 73 72 72 71 69 68 66 63 61 58 58 56 54 52 51 50 49 48 47 46 44 43 42 42 41 42 41 39 40 40 39 39 40 41 39 39 39 39
77 78 76 76 72 71 69 68 67 65 62 61 59 57 55 53 52 51 50 49 48 47 47 46 45 43 42 41 39 39 40 40 39 38 40 40 39 39 38 38 37 37 37

GFSGL_250_spd_045.txt.gz
Wind_Speed
96 99 101 103 107 110 110 110 110 113 112 117 116 117 122 123 127 127 120 120 125 118 116 114 118 114 112 111 110 109 108 108 102 103 107 113 114 119 128 133 138 141 133
99 101 106 109 112 110 110 118 121 116 118 115 123 127 127 126 117 115 114 115 106 113 121 114 113 110 109 108 107 105 105 105 102 98 104 103 104 111 114 120 121 127 133
106 110 110 109 116 116 123 110 107 111 121 125 133 129 128 120 115 112 106 104 106 106 109 108 108 107 105 105 105 103 103 102 101 97 95 100 101 102 102 108 115 117 120
103 112 114 114 115 106 109 117 121 123 130 130 133 127 122 114 110 108 106 103 103 104 105 104 101 101 100 100 99 99 98 96 95 92 90 91 94 96 98 101 106 111 114
112 110 107 110 112 117 120 128 129 131 131 132 134 129 121 114 112 105 104 103 102 102 100 97 96 95 94 93 93 94 93 93 93 92 88 85 87 88 90 95 98 105 108
99 103 110 121 128 129 130 136 130 133 136 137 135 129 118 113 108 105 103 102 100 96 94 92 91 89 90 90 90 90 91 91 91 88 84 83 83 83 85 87 89 93 102
112 118 123 128 135 134 139 138 138 142 142 136 130 120 117 112 109 106 104 101 96 93 90 87 87 87 86 85 86 87 88 87 86 85 85 84 82 82 81 81 81 85 91
121 127 133 135 139 142 145 145 146 144 140 132 125 122 118 114 110 107 103 97 94 90 88 85 83 82 81 80 79 83 85 85 84 83 81 81 81 84 82 80 79 79 84
134 135 140 145 146 149 150 152 150 143 136 128 125 120 119 115 109 105 100 95 91 88 86 83 81 80 79 78 74 76 79 81 79 79 76 76 77 80 81 81 81 81 84
140 142 148 150 150 152 154 151 143 135 128 127 124 121 117 111 107 102 97 91 87 84 83 81 79 76 74 75 73 72 73 77 77 77 76 74 73 75 77 77 79 81 84
142 147 151 152 153 156 155 143 134 129 128 125 122 117 111 106 103 98 92 87 83 81 81 79 76 73 74 74 73 72 72 75 77 76 75 73 70 71 75 76 76 78 82
148 149 149 153 155 157 143 136 132 130 126 123 117 111 106 102 99 94 88 84 80 79 78 78 76 75 75 74 72 70 69 69 70 72 72 72 69 67 68 68 70 73 76
152 152 154 157 152 143 136 131 129 127 125 117 112 106 102 98 95 91 87 81 79 77 79 79 77 75 74 72 68 66 66 68 68 69 71 71 69 67 67 65 66 67 70
153 159 160 153 140 135 135 130 128 122 118 112 107 102 98 94 92 88 84 82 78 78 80 79 77 72 70 67 66 64 65 67 68 68 69 68 67 65 64 62 63 62 65
160 160 146 139 137 130 130 128 121 116 112 108 104 98 95 91 87 84 83 80 79 80 79 76 73 69 69 66 64 63 64 65 67 68 71 70 68 66 63 60 60 61 63
153 140 139 133 130 128 123 120 117 113 108 103 99 95 91 88 84 83 81 79 78 80 75 72 70 68 67 65 64 62 60 63 66 67 69 70 70 68 65 61 61 60 63
139 134 131 129 125 121 118 116 112 108 104 100 96 93 90 85 83 82 82 81 78 77 73 71 69 65 64 63 63 62 60 59 61 63 64 66 67 66 65 62 60 60 61
133 131 128 122 120 118 115 111 106 102 98 95 93 89 86 84 82 81 80 78 76 74 72 69 66 65 64 63 61 60 58 57 57 58 59 60 60 60 60 60 60 59 58
129 124 121 119 117 114 110 104 99 96 93 90 88 86 84 81 80 79 77 74 72 71 69 67 64 64 63 61 60 58 56 55 54 54 54 55 54 55 55 57 58 57 58
119 117 116 116 113 107 102 96 92 89 86 85 85 82 80 78 78 77 74 71 69 69 67 63 61 62 61 59 57 56 55 53 52 52 51 52 51 51 52 53 54 55 54
116 115 112 108 103 99 95 91 88 84 82 81 79 79 79 77 76 75 73 70 68 68 66 62 58 59 59 57 55 55 53 50 49 50 49 50 50 49 49 50 51 51 52
113 107 103 99 95 92 90 86 82 81 80 77 77 78 78 75 73 72 71 69 67 66 63 61 57 56 55 54 53 52 50 48 47 48 48 49 49 48 47 46 46 47 48
102 97 94 92 90 88 86 82 80 79 76 76 76 75 74 72 70 69 68 67 65 63 61 57 54 53 52 52 51 50 48 47 45 46 45 46 47 46 45 44 43 43 44
94 91 89 88 87 85 82 81 79 77 76 75 73 73 71 69 67 65 64 63 63 59 57 54 52 51 50 50 50 48 46 45 44 43 44 43 44 43 43 43 42 42 42
89 87 86 85 84 82 80 79 78 77 76 73 71 69 67 65 63 61 60 58 57 56 55 52 50 48 48 49 48 47 44 43 42 42 42 42 42 41 40 40 40 41 40
85 84 83 82 80 79 80 80 78 75 72 69 67 66 64 62 60 58 56 54 54 52 51 50 49 47 47 46 46 45 43 41 42 42 41 40 40 40 40 39 38 38 38

GFSGL_250_spd_048.txt.gz
Wind_Speed
78 79 83 89 93 97 100 102 105 109 112 113 120 118 116 119 117 123 127 130 119 123 131 133 120 121 119 113 115 113 117 115 112 102 103 101 100 98 99 105 105 104 104
85 86 88 91 95 98 102 107 111 116 118 116 110 118 124 119 116 119 118 123 129 138 129 118 125 118 109 110 113 112 113 113 111 104 101 101 96 94 97 100 104 103 103
95 97 100 103 104 102 104 98 98 101 110 110 113 116 120 121 122 127 123 123 124 116 114 114 110 110 106 106 107 108 108 107 105 102 95 95 94 91 87 90 95 101 103
101 103 105 108 110 111 113 111 113 112 111 112 121 123 128 130 130 126 128 126 123 119 113 110 108 106 105 103 102 102 99 98 96 94 90 87 87 85 82 80 84 87 96
100 102 100 100 97 98 99 101 98 111 113 122 127 127 128 131 131 129 129 122 118 112 110 109 107 105 102 98 95 93 91 89 88 86 84 84 83 79 77 77 78 82 89
95 93 92 94 96 100 101 105 116 120 122 126 132 130 134 137 138 136 127 119 115 111 109 108 106 103 97 93 90 86 84 82 82 80 81 81 79 76 75 74 76 77 82
94 95 96 100 101 106 109 117 125 127 129 136 136 140 141 141 139 128 121 117 115 113 109 106 104 99 94 90 85 83 82 81 77 75 75 77 75 77 75 76 76 78 80
101 102 103 105 109 113 117 123 130 132 135 137 142 144 142 144 134 125 121 116 115 113 107 105 103 97 91 85 81 80 78 78 76 74 69 69 70 72 74 73 76 77 79
106 109 111 113 116 121 126 131 136 139 140 143 144 147 144 135 128 126 119 119 118 111 107 105 100 93 85 82 78 75 74 74 74 71 70 67 67 68 69 69 73 75 75
115 117 117 121 126 130 133 138 143 147 145 147 149 146 140 135 130 124 122 118 113 109 106 101 94 86 81 78 75 72 69 69 72 73 73 70 68 69 70 69 70 73 72
122 123 125 130 133 137 139 143 146 150 151 148 149 141 134 132 130 128 122 116 110 106 102 95 88 82 75 75 73 70 67 67 71 72 72 71 70 68 66 66 67 67 69
130 128 131 135 139 140 143 147 151 153 154 152 144 134 133 131 129 124 118 113 108 103 97 89 84 77 73 74 72 70 69 69 69 70 71 70 70 68 65 63 63 61 62
130 132 138 139 141 145 146 150 152 160 155 145 134 134 132 129 124 118 114 110 105 98 92 86 82 75 72 72 71 71 70 70 69 69 69 69 69 68 67 64 63 61 62
137 140 141 146 147 150 152 153 157 161 145 135 135 132 127 123 118 115 111 106 101 94 87 83 78 73 72 71 72 72 70 67 68 69 69 69 69 68 65 64 63 59 60
145 145 150 152 157 157 156 163 157 143 135 135 131 126 121 117 114 110 104 100 94 90 85 82 76 74 74 73 72 69 68 67 67 68 68 68 67 66 65 64 63 61 58
148 151 157 157 159 163 163 155 136 136 134 130 124 121 118 114 107 102 99 94 88 85 83 81 76 74 75 74 73 71 68 66 66 65 64 66 67 65 64 62 62 60 58
158 161 160 162 165 158 147 137 137 132 126 123 120 117 113 108 102 98 94 89 84 81 81 80 75 74 73 72 72 69 67 64 63 63 62 62 64 62 60 59 58 57 56
165 163 167 165 152 144 136 135 130 123 121 119 116 112 108 103 97 93 90 84 81 80 78 77 75 75 72 70 69 66 64 63 62 61 59 59 59 59 56 56 55 55 55
166 166 152 141 132 135 133 125 121 117 115 113 111 107 104 98 92 89 87 82 80 79 77 76 76 74 71 68 66 63 61 60 59 58 57 55 54 55 53 53 52 51 53
158 141 136 138 133 127 123 118 115 113 110 106 103 101 98 92 88 85 83 80 78 77 75 74 75 71 67 66 64 60 58 57 56 56 54 52 52 51 51 49 49 49 49
138 136 132 128 124 121 117 115 111 106 102 99 97 94 91 87 81 79 80 79 76 76 74 73 72 68 65 65 63 59 57 55 54 52 51 50 49 49 48 47 47 47 48
133 129 125 123 118 115 112 107 102 99 96 94 92 89 87 84 79 75 72 73 75 74 72 71 69 66 63 62 60 58 55 54 52 50 49 49 48 47 46 45 44 46 47
124 121 117 113 110 106 101 98 95 94 92 89 86 84 82 79 76 73 72 70 70 71 70 69 66 63 61 60 57 56 55 53 51 49 47 47 47 46 44 43 43 43 44
114 111 107 103 99 96 94 92 92 89 86 84 81 78 75 75 74 72 71 69 68 68 67 65 63 60 59 56 55 54 53 51 49 47 46 45 46 45 43 43 42 40 40
105 102 98 94 92 90 89 89 87 84 80 76 75 75 74 72 71 70 68 67 65 64 63 62 60 58 55 53 51 51 50 49 47 46 45 44 44 43 42 42 41 40 39
96 93 92 89 87 87 87 86 82 78 76 76 75 73 71 70 68 67 65 63 62 61 60 58 56 55 53 51 49 49 48 47 45 43 43 44 43 41 40 40 40 39 38